Time,TemperatureF,DewpointF,PressureIn,WindDirection,WindDirectionDegrees,WindSpeedMPH,WindSpeedGustMPH,Humidity,HourlyPrecipIn,Conditions,Clouds,dailyrainin,SoftwareType,DateUTC
2013-06-25 00:01:00,75.0,71.0,30.06,SSE,162,0.0,2.0,88,0.00,,,0.14,,2013-06-25 05:01:00,
2013-06-25 00:11:00,74.0,70.0,30.06,West,281,0.0,1.0,88,0.00,,,0.14,,2013-06-25 05:11:00,
2013-06-25 00:22:00,74.0,70.0,30.06,West,281,0.0,1.0,88,0.00,,,0.14,,2013-06-25 05:22:00,
2013-06-25 00:32:00,74.0,71.0,30.07,West,281,0.0,0.0,89,0.00,,,0.14,,2013-06-25 05:32:00,
2013-06-25 00:44:00,74.0,71.0,30.06,West,268,0.0,1.0,90,0.00,,,0.14,,2013-06-25 05:44:00,
2013-06-25 00:52:00,74.0,71.0,30.06,West,268,0.0,1.0,90,0.00,,,0.14,,2013-06-25 05:52:00,
2013-06-25 01:01:00,74.0,71.0,30.06,West,268,0.0,0.0,90,0.00,,,0.14,,2013-06-25 06:01:00,
2013-06-25 01:11:00,74.0,71.0,30.04,West,267,0.0,2.0,91,0.00,,,0.14,,2013-06-25 06:11:00,
2013-06-25 01:22:00,74.0,71.0,30.04,West,267,0.0,2.0,91,0.00,,,0.14,,2013-06-25 06:22:00,
2013-06-25 01:33:00,74.0,71.0,30.04,West,260,0.0,1.0,91,0.00,,,0.14,,2013-06-25 06:33:00,
2013-06-25 01:52:00,74.0,71.0,30.03,SW,221,0.0,2.0,91,0.00,,,0.14,,2013-06-25 06:52:00,
2013-06-25 02:02:00,74.0,72.0,30.04,SW,221,0.0,1.0,92,0.00,,,0.14,,2013-06-25 07:02:00,
2013-06-25 02:11:00,74.0,71.0,30.04,SW,221,0.0,0.0,91,0.00,,,0.14,,2013-06-25 07:11:00,
2013-06-25 02:22:00,74.0,71.0,30.04,SW,221,0.0,0.0,91,0.00,,,0.14,,2013-06-25 07:22:00,
2013-06-25 02:33:00,74.0,71.0,30.04,SW,221,0.0,0.0,91,0.00,,,0.14,,2013-06-25 07:33:00,
2013-06-25 02:52:00,73.0,71.0,30.04,SW,221,0.0,0.0,92,0.00,,,0.14,,2013-06-25 07:52:00,
2013-06-25 03:01:00,73.0,71.0,30.05,NE,54,0.0,2.0,93,0.00,,,0.14,,2013-06-25 08:01:00,
2013-06-25 03:11:00,73.0,71.0,30.04,ENE,78,0.0,1.0,93,0.00,,,0.14,,2013-06-25 08:11:00,
2013-06-25 03:21:00,73.0,71.0,30.04,ENE,78,0.0,1.0,93,0.00,,,0.14,,2013-06-25 08:21:00,
2013-06-25 03:34:00,73.0,71.0,30.04,SSE,154,0.0,1.0,93,0.00,,,0.14,,2013-06-25 08:34:00,
2013-06-25 03:43:00,73.0,71.0,30.04,SSE,154,0.0,0.0,93,0.00,,,0.14,,2013-06-25 08:43:00,
2013-06-25 03:53:00,73.0,71.0,30.04,SSE,154,0.0,0.0,93,0.00,,,0.14,,2013-06-25 08:53:00,
2013-06-25 04:02:00,73.0,71.0,30.03,SSE,154,0.0,0.0,93,0.00,,,0.14,,2013-06-25 09:02:00,
2013-06-25 04:12:00,73.0,71.0,30.04,East,95,0.0,1.0,93,0.00,,,0.14,,2013-06-25 09:12:00,
2013-06-25 04:22:00,73.0,71.0,30.04,East,95,0.0,1.0,93,0.00,,,0.14,,2013-06-25 09:22:00,
2013-06-25 04:33:00,73.0,71.0,30.03,ENE,78,0.0,3.0,93,0.00,,,0.14,,2013-06-25 09:33:00,
2013-06-25 04:43:00,73.0,71.0,30.04,East,91,0.0,1.0,93,0.00,,,0.14,,2013-06-25 09:43:00,
2013-06-25 04:52:00,73.0,71.0,30.04,East,91,0.0,1.0,93,0.00,,,0.14,,2013-06-25 09:52:00,
2013-06-25 05:01:00,73.0,71.0,30.04,South,178,0.0,1.0,93,0.00,,,0.14,,2013-06-25 10:01:00,
2013-06-25 05:11:00,72.0,70.0,30.05,East,86,0.0,2.0,93,0.00,,,0.14,,2013-06-25 10:11:00,
2013-06-25 05:21:00,72.0,70.0,30.05,East,86,0.0,2.0,93,0.00,,,0.14,,2013-06-25 10:21:00,
2013-06-25 05:33:00,72.0,70.0,30.05,East,86,0.0,1.0,93,0.00,,,0.14,,2013-06-25 10:33:00,
2013-06-25 05:42:00,72.0,70.0,30.05,East,86,0.0,1.0,93,0.00,,,0.14,,2013-06-25 10:42:00,
2013-06-25 05:52:00,72.0,70.0,30.05,East,86,0.0,1.0,93,0.00,,,0.14,,2013-06-25 10:52:00,
2013-06-25 06:02:00,72.0,70.0,30.06,East,86,0.0,1.0,92,0.00,,,0.14,,2013-06-25 11:02:00,
2013-06-25 06:12:00,72.0,70.0,30.06,East,86,0.0,0.0,92,0.00,,,0.14,,2013-06-25 11:12:00,
2013-06-25 06:34:00,72.0,70.0,30.06,ESE,113,0.0,1.0,93,0.00,,,0.14,,2013-06-25 11:34:00,
2013-06-25 06:43:00,73.0,71.0,30.06,East,88,0.0,2.0,92,0.00,,,0.14,,2013-06-25 11:43:00,
2013-06-25 06:52:00,73.0,71.0,30.06,East,88,0.0,2.0,92,0.00,,,0.14,,2013-06-25 11:52:00,
2013-06-25 07:01:00,74.0,71.0,30.07,NE,36,0.0,1.0,90,0.00,,,0.14,,2013-06-25 12:01:00,
2013-06-25 07:11:00,76.0,72.0,30.07,NE,38,0.0,1.0,88,0.00,,,0.14,,2013-06-25 12:11:00,
2013-06-25 07:22:00,76.0,72.0,30.07,NE,38,0.0,1.0,88,0.00,,,0.14,,2013-06-25 12:22:00,
2013-06-25 07:33:00,78.0,73.0,30.07,ENE,77,0.0,2.0,85,0.00,,,0.02,,2013-06-25 12:33:00,
2013-06-25 07:43:00,78.0,73.0,30.07,ENE,77,0.0,2.0,85,0.00,,,0.02,,2013-06-25 12:43:00,
2013-06-25 07:55:00,79.0,73.0,30.07,SSW,203,1.0,3.0,83,0.00,,,0.02,,2013-06-25 12:55:00,
2013-06-25 08:02:00,79.0,74.0,30.07,SW,218,1.0,4.0,84,0.00,,,0.02,,2013-06-25 13:02:00,
2013-06-25 08:11:00,79.0,74.0,30.07,SW,218,1.0,4.0,84,0.00,,,0.02,,2013-06-25 13:11:00,
2013-06-25 08:22:00,80.0,74.0,30.07,NW,317,1.0,4.0,82,0.00,,,0.02,,2013-06-25 13:22:00,
2013-06-25 08:34:00,81.0,74.0,30.07,NW,319,0.0,4.0,80,0.00,,,0.00,,2013-06-25 13:34:00,
2013-06-25 08:42:00,81.0,74.0,30.07,NW,319,0.0,4.0,80,0.00,,,0.00,,2013-06-25 13:42:00,
2013-06-25 08:53:00,82.0,74.0,30.06,NW,315,1.0,5.0,78,0.00,,,0.00,,2013-06-25 13:53:00,
2013-06-25 09:01:00,83.0,75.0,30.06,NW,325,1.0,3.0,77,0.00,,,0.00,,2013-06-25 14:01:00,
2013-06-25 09:11:00,83.0,75.0,30.06,NW,325,1.0,3.0,77,0.00,,,0.00,,2013-06-25 14:11:00,
2013-06-25 09:23:00,84.0,76.0,30.06,NNE,17,0.0,5.0,76,0.00,,,0.00,,2013-06-25 14:23:00,
2013-06-25 09:34:00,85.0,76.0,30.06,South,181,1.0,6.0,74,0.00,,,0.00,,2013-06-25 14:34:00,
2013-06-25 09:43:00,85.0,76.0,30.06,South,181,1.0,6.0,74,0.00,,,0.00,,2013-06-25 14:43:00,
2013-06-25 09:53:00,85.0,76.0,30.06,NW,321,1.0,4.0,74,0.00,,,0.00,,2013-06-25 14:53:00,
2013-06-25 10:02:00,86.0,76.0,30.06,NW,320,0.0,6.0,73,0.00,,,0.00,,2013-06-25 15:02:00,
2013-06-25 10:11:00,86.0,76.0,30.06,NW,320,0.0,6.0,73,0.00,,,0.00,,2013-06-25 15:11:00,
2013-06-25 10:22:00,86.0,76.0,30.06,WNW,291,0.0,4.0,72,0.00,,,0.00,,2013-06-25 15:22:00,
2013-06-25 10:32:00,86.0,75.0,30.06,South,188,2.0,8.0,70,0.00,,,0.00,,2013-06-25 15:32:00,
2013-06-25 10:44:00,86.0,75.0,30.06,South,188,2.0,8.0,70,0.00,,,0.00,,2013-06-25 15:44:00,
2013-06-25 10:53:00,87.0,76.0,30.06,WSW,246,1.0,8.0,70,0.00,,,0.00,,2013-06-25 15:53:00,
2013-06-25 11:03:00,88.0,76.0,30.06,SSE,166,3.0,7.0,67,0.00,,,0.00,,2013-06-25 16:03:00,
2013-06-25 11:12:00,88.0,76.0,30.06,SSE,166,3.0,7.0,67,0.00,,,0.00,,2013-06-25 16:12:00,
2013-06-25 11:23:00,88.0,76.0,30.06,NNE,31,0.0,7.0,67,0.00,,,0.00,,2013-06-25 16:23:00,
2013-06-25 11:35:00,89.0,77.0,30.06,NNE,29,0.0,5.0,67,0.00,,,0.00,,2013-06-25 16:35:00,
2013-06-25 11:44:00,89.0,77.0,30.06,NNE,29,0.0,5.0,67,0.00,,,0.00,,2013-06-25 16:44:00,
2013-06-25 11:52:00,89.0,75.0,30.05,WNW,294,0.0,7.0,64,0.00,,,0.00,,2013-06-25 16:52:00,
2013-06-25 12:01:00,90.0,75.0,30.05,NNE,24,2.0,8.0,61,0.00,,,0.00,,2013-06-25 17:01:00,
2013-06-25 12:11:00,90.0,75.0,30.05,NNE,24,2.0,8.0,61,0.00,,,0.00,,2013-06-25 17:11:00,
2013-06-25 12:22:00,90.0,75.0,30.05,South,173,3.0,8.0,62,0.00,,,0.00,,2013-06-25 17:22:00,
2013-06-25 12:33:00,90.0,75.0,30.04,SSW,208,2.0,8.0,62,0.00,,,0.00,,2013-06-25 17:33:00,
2013-06-25 12:44:00,90.0,75.0,30.04,SSW,208,2.0,8.0,62,0.00,,,0.00,,2013-06-25 17:44:00,
2013-06-25 12:53:00,91.0,75.0,30.04,WNW,300,4.0,12.0,60,0.00,,,0.00,,2013-06-25 17:53:00,
2013-06-25 13:02:00,91.0,76.0,30.04,SW,219,1.0,5.0,61,0.00,,,0.00,,2013-06-25 18:02:00,
2013-06-25 13:12:00,91.0,76.0,30.04,SW,219,1.0,5.0,61,0.00,,,0.00,,2013-06-25 18:12:00,
2013-06-25 13:22:00,90.0,75.0,30.03,North,355,2.0,10.0,61,0.00,,,0.00,,2013-06-25 18:22:00,
2013-06-25 13:34:00,91.0,75.0,30.03,WNW,293,2.0,8.0,59,0.00,,,0.00,,2013-06-25 18:34:00,
2013-06-25 13:44:00,91.0,75.0,30.03,WNW,293,2.0,8.0,59,0.00,,,0.00,,2013-06-25 18:44:00,
2013-06-25 13:53:00,91.0,74.0,30.03,WNW,288,3.0,10.0,58,0.00,,,0.00,,2013-06-25 18:53:00,
2013-06-25 14:01:00,91.0,74.0,30.02,WNW,282,4.0,9.0,57,0.00,,,0.00,,2013-06-25 19:01:00,
2013-06-25 14:12:00,91.0,74.0,30.02,WNW,282,4.0,9.0,57,0.00,,,0.00,,2013-06-25 19:12:00,
2013-06-25 14:22:00,92.0,75.0,30.01,NW,323,1.0,8.0,58,0.00,,,0.00,,2013-06-25 19:22:00,
2013-06-25 14:33:00,91.0,74.0,30.01,SSW,194,2.0,9.0,58,0.00,,,0.00,,2013-06-25 19:33:00,
2013-06-25 14:44:00,91.0,74.0,30.01,SSW,194,2.0,9.0,58,0.00,,,0.00,,2013-06-25 19:44:00,
2013-06-25 14:54:00,91.0,74.0,30.01,ENE,75,0.0,7.0,58,0.00,,,0.00,,2013-06-25 19:54:00,
2013-06-25 15:02:00,91.0,75.0,30.01,South,187,4.0,9.0,59,0.00,,,0.00,,2013-06-25 20:02:00,
2013-06-25 15:11:00,91.0,75.0,30.01,South,187,4.0,9.0,59,0.00,,,0.00,,2013-06-25 20:11:00,
2013-06-25 15:22:00,91.0,75.0,30.01,SSE,153,3.0,12.0,59,0.00,,,0.00,,2013-06-25 20:22:00,
2013-06-25 15:33:00,91.0,74.0,30.00,SSW,204,4.0,12.0,58,0.00,,,0.00,,2013-06-25 20:33:00,
2013-06-25 15:42:00,91.0,74.0,30.00,SSW,204,4.0,12.0,58,0.00,,,0.00,,2013-06-25 20:42:00,
2013-06-25 15:52:00,90.0,75.0,30.00,SSW,202,2.0,9.0,62,0.00,,,0.00,,2013-06-25 20:52:00,
2013-06-25 16:01:00,91.0,74.0,29.99,SSW,195,1.0,8.0,58,0.00,,,0.00,,2013-06-25 21:01:00,
2013-06-25 16:11:00,91.0,74.0,29.99,SSW,195,1.0,8.0,58,0.00,,,0.00,,2013-06-25 21:11:00,
2013-06-25 16:22:00,91.0,74.0,29.98,SSW,206,5.0,10.0,57,0.00,,,0.00,,2013-06-25 21:22:00,
2013-06-25 16:34:00,91.0,74.0,29.98,NE,36,0.0,7.0,58,0.00,,,0.00,,2013-06-25 21:34:00,
2013-06-25 16:43:00,91.0,74.0,29.98,NE,36,0.0,7.0,58,0.00,,,0.00,,2013-06-25 21:43:00,
2013-06-25 16:53:00,92.0,75.0,29.97,SSW,192,2.0,12.0,57,0.00,,,0.00,,2013-06-25 21:53:00,
2013-06-25 17:01:00,92.0,73.0,29.96,SW,221,1.0,6.0,55,0.00,,,0.00,,2013-06-25 22:01:00,
2013-06-25 17:11:00,92.0,73.0,29.96,SW,221,1.0,6.0,55,0.00,,,0.00,,2013-06-25 22:11:00,
2013-06-25 17:22:00,91.0,74.0,29.96,SSW,193,3.0,9.0,58,0.00,,,0.00,,2013-06-25 22:22:00,
2013-06-25 17:34:00,90.0,73.0,29.95,East,98,2.0,6.0,58,0.00,,,0.00,,2013-06-25 22:34:00,
2013-06-25 17:42:00,90.0,73.0,29.95,East,98,2.0,6.0,58,0.00,,,0.00,,2013-06-25 22:42:00,
2013-06-25 17:52:00,90.0,74.0,29.94,SW,227,2.0,11.0,60,0.00,,,0.00,,2013-06-25 22:52:00,
2013-06-25 18:01:00,90.0,74.0,29.93,WSW,243,2.0,7.0,60,0.00,,,0.00,,2013-06-25 23:01:00,
2013-06-25 18:11:00,90.0,74.0,29.93,WSW,243,2.0,7.0,60,0.00,,,0.00,,2013-06-25 23:11:00,
2013-06-25 18:22:00,90.0,74.0,29.93,SW,217,3.0,8.0,60,0.00,,,0.00,,2013-06-25 23:22:00,
2013-06-25 18:34:00,89.0,75.0,29.93,South,174,5.0,11.0,64,0.00,,,0.00,,2013-06-25 23:34:00,
2013-06-25 18:44:00,89.0,75.0,29.93,South,174,5.0,11.0,64,0.00,,,0.00,,2013-06-25 23:44:00,
2013-06-25 18:52:00,88.0,75.0,29.93,NW,309,4.0,9.0,66,0.00,,,0.00,,2013-06-25 23:52:00,
2013-06-25 19:02:00,87.0,75.0,29.93,South,190,3.0,10.0,68,0.00,,,0.00,,2013-06-26 00:02:00,
2013-06-25 19:11:00,87.0,75.0,29.93,South,190,3.0,10.0,68,0.00,,,0.00,,2013-06-26 00:11:00,
2013-06-25 19:22:00,87.0,76.0,29.92,South,175,2.0,12.0,70,0.00,,,0.00,,2013-06-26 00:22:00,
2013-06-25 19:33:00,86.0,75.0,29.91,SSW,207,2.0,7.0,70,0.00,,,0.00,,2013-06-26 00:33:00,
2013-06-25 19:42:00,86.0,75.0,29.91,SSW,207,2.0,7.0,70,0.00,,,0.00,,2013-06-26 00:42:00,
2013-06-25 19:53:00,86.0,76.0,29.92,SSE,168,2.0,6.0,72,0.00,,,0.00,,2013-06-26 00:53:00,
2013-06-25 20:01:00,85.0,75.0,29.92,South,186,3.0,9.0,73,0.00,,,0.00,,2013-06-26 01:01:00,
2013-06-25 20:11:00,85.0,75.0,29.92,South,186,3.0,9.0,73,0.00,,,0.00,,2013-06-26 01:11:00,
2013-06-25 20:22:00,84.0,75.0,29.91,SSW,192,1.0,6.0,74,0.00,,,0.00,,2013-06-26 01:22:00,
2013-06-25 20:33:00,83.0,75.0,29.91,South,187,2.0,5.0,76,0.00,,,0.00,,2013-06-26 01:33:00,
2013-06-25 20:43:00,83.0,75.0,29.91,South,187,2.0,5.0,76,0.00,,,0.00,,2013-06-26 01:43:00,
2013-06-25 20:53:00,83.0,75.0,29.92,SSW,207,2.0,6.0,77,0.00,,,0.00,,2013-06-26 01:53:00,
2013-06-25 21:02:00,83.0,75.0,29.92,SSW,204,2.0,6.0,77,0.00,,,0.00,,2013-06-26 02:02:00,
2013-06-25 21:11:00,83.0,75.0,29.92,SSW,204,2.0,6.0,77,0.00,,,0.00,,2013-06-26 02:11:00,
2013-06-25 21:22:00,83.0,75.0,29.93,South,171,1.0,6.0,77,0.00,,,0.00,,2013-06-26 02:22:00,
2013-06-25 21:34:00,82.0,74.0,29.94,SSW,195,1.0,4.0,77,0.00,,,0.00,,2013-06-26 02:34:00,
2013-06-25 21:43:00,82.0,74.0,29.94,SSW,195,1.0,4.0,77,0.00,,,0.00,,2013-06-26 02:43:00,
2013-06-25 21:53:00,82.0,74.0,29.95,SSW,204,0.0,4.0,78,0.00,,,0.00,,2013-06-26 02:53:00,
2013-06-25 22:02:00,82.0,74.0,29.95,SSW,198,0.0,3.0,78,0.00,,,0.00,,2013-06-26 03:02:00,
2013-06-25 22:11:00,82.0,74.0,29.95,SSW,198,0.0,3.0,78,0.00,,,0.00,,2013-06-26 03:11:00,
2013-06-25 22:22:00,81.0,73.0,29.95,SSW,198,2.0,4.0,78,0.00,,,0.00,,2013-06-26 03:22:00,
2013-06-25 22:33:00,81.0,73.0,29.95,SSW,194,0.0,2.0,78,0.00,,,0.00,,2013-06-26 03:33:00,
2013-06-25 22:43:00,81.0,73.0,29.95,SSW,194,0.0,2.0,78,0.00,,,0.00,,2013-06-26 03:43:00,
2013-06-25 22:52:00,81.0,74.0,29.95,SSW,194,0.0,1.0,79,0.00,,,0.00,,2013-06-26 03:52:00,
2013-06-25 23:01:00,80.0,73.0,29.96,SSW,194,0.0,0.0,80,0.00,,,0.00,,2013-06-26 04:01:00,
2013-06-25 23:12:00,80.0,73.0,29.96,SSW,194,0.0,0.0,80,0.00,,,0.00,,2013-06-26 04:12:00,
2013-06-25 23:22:00,80.0,74.0,29.96,SSW,194,0.0,0.0,81,0.00,,,0.00,,2013-06-26 04:22:00,
2013-06-25 23:33:00,80.0,74.0,29.96,SSW,194,0.0,0.0,81,0.00,,,0.00,,2013-06-26 04:33:00,
2013-06-25 23:43:00,79.0,73.0,29.96,SSW,194,0.0,1.0,81,0.00,,,0.00,,2013-06-26 04:43:00,
2013-06-25 23:53:00,79.0,73.0,29.96,SSW,194,0.0,0.0,82,0.00,,,0.00,,2013-06-26 04:53:00,